Vertical_Velocity
-5 -0 3 1 2 -1 5 -3 3 -9 1 7 4 1 4 2 1 -2 -1 1 -1 -2 -2 -1 1 2 7 6 8 4 4 -1 1 2 2 3 3 3 2 2 -0 -3 -3 -1
-6 -3 3 0 -1 0 0 -2 -1 3 4 3 2 5 -1 2 -0 1 2 2 0 -1 0 -3 -2 -1 7 1 8 5 10 1 -1 1 3 -3 3 6 3 -0 -0 2 1 -0
-10 1 -1 -1 -10 -1 -1 0 -2 2 10 1 1 -0 3 2 -0 1 1 5 6 -3 2 -3 -2 0 5 1 5 7 6 6 5 2 5 5 1 -2 7 -1 -1 1 2 4
-2 0 2 -24 -0 -4 -1 4 -0 -1 2 1 1 4 1 1 1 0 2 1 -2 6 4 -4 -5 -0 1 2 6 4 4 -1 6 5 -0 7 9 4 3 7 2 3 3 2
3 1 -10 16 7 1 -4 8 4 4 0 3 1 -1 2 1 2 0 -1 2 2 -1 1 11 -9 -7 2 -3 1 4 -4 1 2 9 -3 1 3 7 4 0 12 -8 2 6
-0 2 2 8 -1 0 -1 4 3 1 2 2 3 2 4 2 3 3 3 3 2 1 -1 2 -0 -8 7 -6 -1 2 -15 14 -9 11 -6 -1 -1 4 3 1 -1 5 -7 6
-1 0 -0 3 0 2 -0 16 3 -0 1 -1 -1 5 4 2 0 2 3 1 3 3 -2 1 3 -8 8 1 5 2 9 -6 2 -2 17 -6 -10 9 2 -2 3 -10 -9 9
3 3 7 3 -14 -12 9 3 2 1 3 -1 1 1 1 2 2 4 3 0 3 -3 -2 3 1 -3 -3 -5 1 10 3 -3 -16 -7 8 10 -8 1 4 2 -4 -3 -2 -3
2 7 5 6 4 4 2 1 2 -2 1 -0 -0 0 1 -1 -1 3 6 1 3 -2 -2 2 6 5 1 9 2 4 -2 -1 -2 9 9 -9 2 4 -0 -1 2 1 1 1
4 2 4 2 3 -1 1 -0 1 -0 -0 -1 -1 1 1 0 0 -0 -2 1 7 4 -1 0 -0 -1 5 2 0 3 3 -2 4 2 7 -5 3 4 -1 -1 -0 -3 -1 -3
3 1 2 -2 2 3 1 0 -2 1 3 1 3 1 -1 1 1 -0 -1 2 2 -3 -1 1 -3 -5 -5 -0 5 5 8 8 8 6 5 -2 -1 -2 -3 -3 -1 -1 -2 -3
4 3 0 5 4 2 -3 4 6 2 1 1 -0 -1 -0 -0 -0 -1 -2 2 1 -0 -2 -2 1 -0 -0 1 3 1 -2 1 1 -5 -1 -1 1 -0 1 0 2 -0 -1 2
3 2 -2 -0 2 -0 -2 -1 -2 -2 0 -0 1 -0 -0 -2 -0 2 -1 1 1 -2 1 4 0 -0 1 4 5 5 2 1 -0 0 1 2 -0 2 1 1 2 2 3 4
2 3 2 4 2 -1 -2 1 2 4 3 2 1 2 1 -1 0 0 -1 -0 0 0 -1 -0 0 -2 1 3 -1 -1 0 -1 0 1 1 0 -1 -1 -1 -3 -0 -0 -0 -0
-1 -0 -2 -3 2 4 7 2 1 -0 1 -0 2 1 1 0 1 3 6 2 -0 -0 -1 1 1 1 -1 -0 1 -1 0 0 -0 -0 -1 -1 -1 -1 -1 -1 -1 -0 -2 -3
-1 -0 -2 -3 3 3 2 5 -0 2 -1 1 1 0 -0 -1 -0 0 1 -0 -0 -1 -2 -2 -1 -1 1 2 4 -2 1 -1 1 -0 -0 -0 1 1 1 -0 -2 -2 -0 -0
8 6 4 1 -2 -2 -1 2 2 0 0 0 3 4 1 -0 -0 -0 0 1 1 0 2 2 1 1 2 2 -0 3 0 -1 1 -0 -0 0 -1 1 2 2 -2 -0 -1 0
-2 -2 -2 3 3 1 -1 -2 -2 -2 -4 -2 0 -0 -1 -0 -1 -0 0 1 1 0 -0 -1 -0 0 0 1 -2 1 -1 -1 -1 -1 -0 1 2 0 -1 -1 1 0 -1 0
-0 0 0 1 1 -1 -1 -3 -2 -2 -1 -1 -1 -1 -1 -1 -1 -1 -1 -2 1 -3 -2 -2 -2 -1 -1 -1 -1 -0 -2 -0 3 -0 1 2 -1 -1 -1 2 -0 -2 -1 -2
1 0 -2 -2 -0 -2 -2 -1 -2 -2 -1 -0 -0 -0 -0 -0 -0 -0 0 -1 -1 -1 -0 1 -1 -0 1 1 -0 1 0 1 -0 -3 1 -1 -1 -3 -3 -1 -1 -0 -1 -1
0 -0 -1 -1 -0 -0 -0 0 1 1 0 0 0 -1 -1 -0 0 0 5 12 -1 0 -2 -3 0 -1 -1 1 0 -2 -1 -1 -2 -2 -1 -0 0 -1 -1 -1 -1 -0 0 1
-3 -2 -0 -0 -2 -1 0 1 1 1 1 1 1 1 -1 -1 -2 -2 -1 0 -5 -0 2 -4 -0 -0 1 0 -0 -0 -1 -1 0 3 2 1 1 2 1 -0 -1 0 -0 -0
-0 0 -1 0 -0 -0 0 0 -0 -0 -1 -1 -1 -1 -0 -1 -2 -0 10 -0 -1 1 -1 1 -0 0 0 -0 0 -0 -0 -0 -1 -1 0 -1 -0 -1 -1 -1 0 1 1 -1
-0 0 -1 1 -1 -2 -2 -2 -2 -2 -1 -2 -1 -1 -1 2 7 -0 -5 -1 1 1 2 0 -1 -0 1 -1 -1 -1 -0 -1 1 0 1 -2 1 0 0 0 -1 -1 -0 -1
-2 -1 -1 -3 2 2 -3 -5 -4 -4 -6 -3 -4 -6 -6 -5 -4 2 -0 -2 -2 -1 2 1 -0 -1 0 -1 -0 -1 -2 -0 -1 -1 -0 -0 -0 -0 0 0 0 -0 -1 0
-0 4 1 -4 0 3 6 5 -1 10 3 3 3 3 -2 -4 -5 -3 -3 -2 -1 -3 -2 -2 -2 -4 -2 -2 2 -0 -2 -1 -1 2 -1 -1 -1 -1 -0 1 0 0 -1 -0
-3 -4 -3 1 -2 -3 -6 -4 -2 3 6 5 1 5 1 -2 -3 -2 -5 -4 -3 3 0 0 2 1 -3 -2 -2 -2 -1 0 -0 -2 -1 -2 -1 -1 -0 1 0 0 -0 -0
Height
1424 1409 1410 1412 1414 1401 1400 1400 1393 1388 1387 1388 1388 1388 1397 1405 1407 1408 1406 1402 1399 1399 1398 1396 1393 1393 1393 1394 1394 1398 1400 1403 1408 1411 1414 1417 1420 1422 1425 1428 1431 1432 1435 1438
1418 1412 1407 1403 1393 1398 1403 1402 1397 1394 1381 1398 1397 1394 1402 1408 1410 1411 1409 1407 1404 1404 1402 1400 1400 1397 1396 1396 1397 1398 1400 1404 1408 1411 1414 1417 1419 1422 1424 1427 1430 1432 1434 1437
1416 1408 1405 1397 1380 1383 1387 1392 1383 1384 1397 1400 1406 1411 1412 1413 1415 1416 1415 1413 1407 1409 1407 1405 1404 1403 1401 1400 1400 1398 1398 1403 1407 1409 1413 1416 1418 1421 1423 1425 1429 1431 1432 1435
1422 1415 1416 1380 1370 1371 1378 1389 1399 1395 1398 1405 1411 1417 1418 1418 1418 1419 1420 1416 1413 1414 1412 1410 1410 1409 1408 1405 1403 1401 1401 1403 1406 1408 1411 1414 1416 1418 1420 1422 1423 1428 1431 1432
1422 1416 1405 1372 1370 1372 1375 1410 1406 1401 1402 1409 1413 1416 1423 1424 1422 1421 1421 1420 1417 1415 1417 1415 1413 1416 1413 1410 1409 1409 1407 1407 1409 1409 1411 1415 1416 1417 1418 1421 1421 1425 1428 1430
1424 1427 1398 1397 1388 1380 1378 1405 1414 1413 1417 1417 1414 1414 1426 1427 1427 1425 1424 1423 1420 1419 1420 1418 1415 1419 1418 1417 1416 1414 1413 1411 1413 1417 1412 1418 1419 1420 1419 1422 1423 1424 1429 1430
1422 1422 1402 1409 1399 1382 1386 1423 1422 1424 1426 1424 1423 1429 1430 1430 1429 1428 1426 1426 1424 1422 1423 1424 1425 1419 1419 1418 1419 1421 1416 1415 1417 1424 1421 1419 1424 1428 1422 1423 1426 1427 1436 1435
1408 1401 1402 1415 1399 1406 1427 1426 1427 1429 1429 1429 1430 1432 1433 1433 1434 1433 1431 1431 1429 1426 1428 1429 1429 1427 1425 1423 1429 1420 1421 1421 1422 1425 1426 1422 1424 1424 1427 1425 1429 1433 1435 1435
1421 1424 1429 1430 1430 1431 1429 1429 1430 1431 1432 1433 1434 1435 1436 1436 1436 1435 1435 1435 1434 1432 1433 1434 1434 1432 1433 1433 1428 1428 1427 1427 1428 1432 1419 1428 1431 1428 1426 1430 1433 1436 1438 1439
1425 1433 1435 1435 1434 1433 1433 1433 1435 1435 1436 1437 1437 1438 1438 1439 1439 1439 1438 1438 1438 1436 1437 1438 1438 1437 1436 1438 1438 1435 1432 1431 1435 1432 1428 1427 1430 1427 1430 1434 1437 1439 1440 1441
1435 1437 1438 1439 1439 1439 1439 1439 1439 1440 1440 1441 1440 1440 1442 1443 1441 1442 1442 1441 1440 1439 1440 1440 1441 1441 1442 1443 1441 1438 1437 1435 1433 1433 1429 1432 1435 1435 1438 1440 1442 1443 1444 1447
1440 1445 1444 1446 1444 1442 1442 1443 1444 1444 1443 1443 1443 1443 1444 1445 1444 1444 1445 1444 1444 1442 1443 1443 1443 1444 1444 1444 1443 1443 1441 1440 1439 1439 1442 1443 1443 1442 1442 1444 1446 1447 1449 1450
1448 1448 1446 1447 1447 1446 1446 1447 1447 1447 1447 1447 1447 1447 1446 1447 1448 1448 1448 1448 1447 1446 1448 1447 1447 1448 1448 1448 1449 1446 1445 1444 1446 1447 1447 1447 1446 1446 1446 1449 1450 1451 1452 1451
1450 1449 1449 1450 1450 1451 1451 1450 1451 1452 1452 1452 1452 1452 1451 1451 1452 1452 1452 1452 1452 1451 1451 1451 1451 1450 1452 1452 1450 1450 1449 1449 1449 1449 1448 1449 1449 1450 1451 1452 1453 1452 1453 1453
1451 1451 1450 1451 1453 1454 1452 1453 1454 1455 1455 1455 1454 1454 1454 1454 1455 1455 1456 1456 1455 1453 1453 1455 1455 1454 1453 1454 1453 1452 1451 1451 1451 1451 1451 1451 1452 1452 1453 1454 1454 1453 1453 1454
1452 1453 1454 1455 1456 1455 1455 1456 1456 1457 1457 1458 1457 1457 1456 1456 1456 1456 1456 1456 1456 1455 1456 1457 1456 1456 1455 1454 1455 1454 1453 1453 1454 1454 1454 1454 1454 1455 1455 1454 1453 1453 1454 1454
1454 1455 1456 1456 1457 1457 1458 1458 1458 1458 1459 1459 1459 1459 1458 1457 1457 1456 1457 1457 1457 1456 1456 1456 1455 1456 1456 1455 1455 1455 1455 1454 1456 1456 1456 1456 1456 1457 1457 1455 1453 1454 1453 1454
1455 1456 1457 1457 1457 1459 1459 1459 1459 1459 1459 1459 1460 1460 1460 1459 1459 1459 1459 1459 1458 1457 1456 1456 1455 1455 1455 1456 1456 1457 1457 1457 1457 1456 1456 1456 1456 1455 1455 1455 1456 1455 1454 1455
1457 1457 1457 1457 1458 1458 1458 1459 1459 1459 1460 1460 1460 1460 1460 1460 1460 1460 1460 1460 1460 1458 1458 1457 1457 1456 1456 1457 1457 1457 1457 1457 1457 1456 1456 1456 1456 1455 1456 1456 1455 1455 1455 1455
1457 1457 1458 1458 1458 1458 1459 1460 1460 1461 1461 1462 1462 1462 1462 1462 1461 1461 1461 1461 1460 1459 1458 1458 1458 1457 1457 1458 1457 1457 1457 1457 1456 1455 1455 1455 1455 1455 1455 1455 1455 1455 1455 1454
1457 1457 1458 1458 1459 1460 1461 1461 1462 1462 1463 1463 1463 1463 1463 1462 1462 1462 1463 1462 1460 1459 1458 1457 1457 1456 1456 1457 1457 1456 1456 1456 1456 1455 1455 1456 1456 1456 1455 1455 1455 1455 1454 1454
1459 1460 1460 1461 1462 1462 1463 1464 1464 1464 1464 1464 1464 1464 1463 1464 1463 1463 1463 1462 1460 1459 1459 1456 1456 1455 1455 1455 1455 1455 1454 1454 1454 1455 1454 1454 1454 1454 1454 1454 1453 1453 1452 1452
1461 1462 1463 1464 1464 1465 1465 1465 1465 1465 1465 1465 1465 1465 1464 1464 1464 1464 1463 1461 1459 1459 1457 1456 1455 1454 1454 1453 1453 1453 1453 1452 1452 1452 1452 1451 1452 1451 1451 1450 1450 1450 1449 1448
1464 1465 1465 1466 1466 1467 1467 1467 1467 1466 1466 1465 1465 1465 1465 1465 1465 1462 1460 1458 1458 1457 1456 1455 1454 1453 1453 1452 1452 1452 1451 1451 1451 1450 1450 1449 1449 1449 1448 1448 1447 1446 1446 1445
1465 1466 1467 1468 1470 1470 1469 1469 1468 1467 1467 1468 1467 1465 1465 1464 1464 1462 1461 1459 1457 1456 1456 1454 1454 1452 1452 1451 1451 1450 1449 1449 1448 1448 1447 1446 1447 1446 1446 1445 1445 1444 1443 1443
1467 1469 1469 1469 1469 1470 1471 1470 1470 1470 1468 1468 1467 1465 1463 1463 1462 1461 1459 1459 1458 1456 1455 1454 1453 1451 1451 1450 1449 1448 1447 1447 1446 1445 1444 1444 1443 1443 1443 1442 1441 1440 1439 1438
1468 1469 1469 1470 1470 1469 1468 1467 1467 1467 1466 1465 1465 1464 1462 1461 1460 1460 1459 1458 1457 1456 1455 1454 1453 1451 1449 1448 1447 1446 1445 1444 1443 1443 1442 1441 1440 1439 1439 1438 1437 1436 1435 1434